{"data":{"norad_id":60559,"epoch":"2026-09-19T00:23:10.932000Z","epoch_age_seconds":142653,"freshness":"FRESH","line1":"1 60559U 24149CV  26262.01609875  .00026171  00000+0  58691-3 0  9997","line2":"2 60559  97.3789 347.0721 0002113 316.0049  44.1030 15.43387462116737","mean_motion":15.43387462,"eccentricity":0.0002113,"inclination_deg":97.3789,"raan_deg":347.0721,"arg_perigee_deg":316.0049,"mean_anomaly_deg":44.103,"bstar":0.00058691,"rev_number":11673,"period_min":93.301263322042,"perigee_km":434.68046819648,"apogee_km":437.56017334024,"semimajor_km":6814.2573207684,"source":"CELESTRAK","updated_at":"2026-09-20T09:00:34.716438Z"}}